Regional Weather Roundup
Issued by NWS

Home | Current Version | Previous Version | Graphics & Text | Print | Product List | Glossary On
Versions: 1 2 3 4 5 6 7 8 9 10 11 12 13 14 15 16 17 18 19 20 21 22 23 24 25 26 27 28 29 30 31 32 33 34 35 36 37 38 39 40 41 42 43 44 45 46 47 48 49 50
742
ASUS43 KDMX 101708
RWRIA

WEATHER ROUNDUP FOR IOWA
NATIONAL WEATHER SERVICE DES MOINES IA
1100 AM CST WED FEB 10 2016

NOTE: "FAIR" INDICATES FEW OR NO CLOUDS BELOW 12,000 FEET WITH NO
SIGNIFICANT WEATHER AND/OR OBSTRUCTIONS TO VISIBILITY.

* - THESE STATIONS ARE NOT NWS STATIONS...THUS NOT UNDER NWS
QUALITY CONTROL.  THEY ALSO DO NOT REPORT WEATHER SUCH
AS PRECIPITATION OR FOG.

IAZ001>003-012>014-020>022-031>034-043>046-101800-
   NORTHWEST IOWA

CITY           SKY/WX    TMP DP  RH WIND       PRES   REMARKS
CARROLL *      CLOUDY    14  12  92 E16       30.02F FOG     WCI  -2
CHEROKEE *     FLURRIES  16  14  93 E10       30.01S WCI   3
DENISON *      CLOUDY    23  19  86 SE13      29.97S WCI  11
LE MARS *      CLOUDY    23  21  93 E13G20    29.98S WCI  11
ORANGE CITY *  LGT SNOW  18  16  93 E10G16    29.97S WCI   6
SHELDON *      LGT SNOW  14  12  92 E20       29.98S WCI  -3
SIOUX CITY     MOSUNNY   28  19  69 SE15      29.96F WCI  16
SPENCER        LGT SNOW  13   7  77 E14       30.03S WCI  -2
STORM LAKE *   CLOUDY    14  12  92 E16       30.00S WCI  -2
$$

IAZ055>058-069>071-079>083-090>094-101800-
   SOUTHWEST IOWA

CITY           SKY/WX    TMP DP  RH WIND       PRES   REMARKS
ATLANTIC *     CLOUDY    27  19  74 SE9       29.99F WCI  17
AUDUBON *      CLOUDY    23  18  80 SE8       29.99F WCI  14
CLARINDA *     SUNNY     32  18  55 S9        30.01F WCI  24
COUNCIL BLFS * SUNNY     30  18  59 S9        29.96S WCI  22
CRESTON *      CLOUDY    23  18  80 SE12      30.02F WCI  12
HARLAN  *      CLOUDY    27  19  74 SE10      30.02F WCI  17
LAMONI         CLOUDY    21  18  88 SE8       30.05F WCI  11
RED OAK *      CLOUDY    32  19  59 S14       29.99R WCI  22
SHENANDOAH *   MOSUNNY   34  18  51 S14G22    29.98F WCI  24
$$

IAZ047>049-059>061-072>074-084-101800-
   CENTRAL IOWA

CITY           SKY/WX    TMP DP  RH WIND       PRES   REMARKS
AMES           LGT SNOW  13   9  84 E6        30.09F FOG     WCI   4
ANKENY *       FLURRIES  16  10  79 SE8       30.09F WCI   5
BOONE *        LGT SNOW  14   9  79 SE8       30.06F WCI   3
CHARITON *     LGT SNOW  18  14  86 SE5       30.09S WCI  11
DES MOINES     LGT SNOW  18  11  74 E7        30.09F WCI   9
GRINNELL*      LGT SNOW  14   9  79 CALM      30.11S VSB 1
KNOXVILLE *    SNOW      16  10  79 SE5       30.09F VSB 1/2 WCI   9
MARSHALLTOWN   LGT SNOW  11   5  77 NE5       30.10F WCI   3
NEWTON *       LGT SNOW  14  10  85 CALM      30.10F
PELLA *        SNOW      18  12  79 CALM      30.12F VSB 1/2
$$

IAZ004>006-015-016-023>025-035-036-101800-
   NORTH CENTRAL IOWA

CITY           SKY/WX    TMP DP  RH WIND       PRES   REMARKS
ALGONA *       FLURRIES  12   7  79 E9        30.05F WCI   0
CLARION *      LGT SNOW  10   5  79 E9        30.08S WCI  -2
ESTHERVILLE    LGT SNOW   9   5  84 E8        30.05S FOG     WCI  -3
FORT DODGE *   CLOUDY    12   5  73 E9        30.07F WCI   0
MASON CITY     LGT SNOW   8   0  69 CALM      30.09F
FOREST CITY *  LGT SNOW  10   3  72 SE3       30.08S
WEBSTER CITY * LGT SNOW  12   7  79 E8        30.06F WCI   1
IOWA FALLS *   LGT SNOW  12   5  73 E5        30.09F WCI   4
$$

IAZ007>011-017>019-026>030-037>042-050>054-066-101800-
   NORTHEAST IOWA

CITY           SKY/WX    TMP DP  RH WIND       PRES   REMARKS
CEDAR RAPIDS   CLOUDY    11   1  64 NW6       30.10F WCI   1
CHARLES CITY * CLOUDY     7  -4  61 N3        30.10S
CLINTON *      CLOUDY    14   4  64 NW13      30.11S WCI   0
DECORAH *      SUNNY      5  -6  61 NW7       30.07F WCI  -7
DUBUQUE        CLOUDY     9  -1  64 NW7       30.08R WCI  -2
MONTICELLO *   SUNNY     10   0  61 N6        30.10F WCI   1
OELWEIN *      SUNNY      7  -2  66 N5        30.09F WCI  -2
WATERLOO       CLOUDY     9  -1  64 CALM      30.11F
$$

IAZ064-065-067-068-078-101800-
   EAST CENTRAL IOWA

CITY           SKY/WX    TMP DP  RH WIND       PRES   REMARKS
DAVENPORT      MOSUNNY   14   2  58 NW10      30.11F WCI   1
IOWA CITY      CLOUDY    13   0  56 N7        30.14F WCI   3
MT. PLEASANT * CLOUDY    18   5  57 NW3       30.15S
MUSCATINE *    MOSUNNY   16   3  57 NW9       30.15F WCI   4
QUAD CITIES    MOSUNNY   14   1  56 W10       30.12S WCI   1
$$

IAZ062-063-075>077-085>089-095>099-101800-
   SOUTHEAST IOWA

CITY           SKY/WX    TMP DP  RH WIND       PRES   REMARKS
BURLINGTON     CLOUDY    15   3  59 NW8       30.14R WCI   4
FAIRFIELD *    LGT SNOW  16   7  67 NW5       30.14R WCI   9
FORT MADISON * CLOUDY    16   5  62 NW7       30.15R WCI   6
KEOKUK *       CLOUDY    18   5  57 NW7       30.14S WCI   8
OSKALOOSA *    LGT SNOW  16  10  79 CALM      30.13S VSB 1
CENTERVILLE *  FLURRIES  18  16  93 CALM      30.12R
OTTUMWA        LGT SNOW  16  11  80 CALM      30.13R VSB 1
WASHINGTON *   FLURRIES  14   3  62 W6        30.15S WCI   5
$$

ABBREVIATIONS USED IN REMARKS
   TC - TEMPERATURES IN CELSIUS
  WCI - WIND CHILL INDEX
   HX - HEAT INDEX
  VSB - VISIBILITY
$$





USA.gov is the U.S. government's official web portal to all federal, state and local government web resources and services.